Al-Farabi 2

operational
NORAD ID: 43805 Int'l Des: 2018-099 Owner: KAZNU Country: KZ
LEOCIRCULARRETROGRADE

Al-Farabi 2について

説明を読み込み中...

リアルタイム位置

3D地球を読み込み中...

次回通過

高度履歴

Altitude vs Time

uPlot chart will show altitude changes over time

軌道要素

1 43805U 18099AZ 26062.16571354 .00152181 00000-0 14771-2 0 9995
2 43805 97.4121 137.6467 0004519 229.7848 130.3017 15.65840070398336
Epoch: Mar 3, 2026 • Age: 29 hours

現在のステータス

高度 385.1 km
速度 7.68 km/s
衛星直下点 71.96°N, 119.04°W
打ち上げ日 Dec 3, 2018
運用期間 7.2 years
タイプ other

技術仕様

分類 Payload
質量 4.00 kg
乾燥質量 4.00 kg
総質量 4.00 kg
長さ 0.30 m
直径 0.10 m
スパン 0.30 m
形状 Box
製造者 KAZNU
バスタイプ Cubesat 3U
フェーズステータス In Orbit
所有者/国 KAZNU/KZ

大規模コンステレーション

Loading constellations...